[[{"header":{"parameterUnit":"m.s-1","parameterCategory":1,"la1":30.2991,"la2":30.254,"lo1":-89.0895,"lo2":-89.0444,"dy":0.0017,"dx":0.0017,"nx":28,"ny":28,"refTime":"2025-02-13T09:00:00:Z","depth":0,"parameterNumber":2,"parameterNumberName":"U-component_of_WINDS"},"data":[0,0,0,0,0,0,0,0,0,0,0,0,0,0,0,0,0,0,0,0,0,0,0,0,0,0,0,0,0,0,0,0,0,0,0,0,0,0,0,0,0,0,0,0,0,0,0,0,0,0,0,0,0,0,0,0,0,0,2.939,2.939,0,2.9346,2.9346,2.9345,2.9288,2.9287,2.9286,2.9285,2.9242,2.9242,2.9242,0,0,0,0,0,0,0,0,0,0,0,0,0,2.9426,2.9426,2.939,2.939,2.9389,2.9346,2.9346,2.9345,2.9288,2.9287,2.9286,2.9285,2.9242,2.9242,2.9242,0,0,0,0,0,0,0,0,0,0,0,0,0,2.94,2.9426,2.939,2.9356,2.9352,2.9346,2.9346,2.9345,2.9289,2.9287,2.9286,2.9284,2.9242,2.9242,2.9242,2.9267,0,0,2.924,2.924,0,0,0,0,0,0,0,0,2.9401,2.9398,2.9361,2.9358,2.9354,2.9321,2.9343,2.9319,2.9289,2.9313,2.9285,2.9284,2.927,2.9267,2.9262,2.9265,2.9263,2.924,2.924,2.924,2.924,0,0,0,0,0,0,0,2.9403,2.94,2.9373,2.9361,2.9356,2.9343,2.9337,2.9338,2.93,2.9311,2.9306,2.9302,2.9268,2.9262,2.9261,2.9263,2.924,2.924,2.924,2.924,2.9283,2.9285,0,0,0,0,0,0,2.941,2.9402,2.9374,2.9372,2.9375,2.9343,2.9337,2.9333,2.93,2.9293,2.9303,2.9299,2.9264,2.9261,2.9259,2.9286,2.924,2.924,2.9239,2.9282,2.9284,2.9285,0,0,0,0,0,0,2.9411,2.9408,2.9376,2.9385,2.938,2.9344,2.934,2.9333,2.9328,2.9294,2.9287,2.9305,2.9263,2.9259,2.9265,2.9283,2.9239,2.9239,2.928,2.9283,2.9285,2.934,0,0,0,0,0,0,2.9412,2.9409,2.9418,2.9386,2.938,2.9383,2.9341,2.9333,2.9327,2.9322,2.9294,2.9288,2.9261,2.9266,2.9265,2.9282,2.9239,2.9279,2.9281,2.9284,2.9337,2.9344,2.9351,0,0,0,0,0,2.9414,2.9436,2.9419,2.9416,2.9391,2.9384,2.9381,2.935,2.9329,2.9338,2.9316,2.9289,2.9282,2.9267,2.9265,2.9283,2.9277,2.9281,2.9284,2.9334,2.9343,2.935,0,0,0,0,0,0,2.9472,2.9431,2.9412,2.9424,2.9408,2.9375,2.9385,2.936,2.935,2.9346,2.9308,2.9302,2.9312,2.9298,2.9283,2.9305,2.9275,2.9278,2.9314,2.9322,2.9329,2.9332,2.9238,0,0,0,0,0,2.9486,2.9484,2.9448,2.9463,2.9456,2.9422,2.9418,2.9395,2.9377,2.937,2.9349,2.9333,2.9327,2.9324,2.9316,2.9334,2.9327,2.9345,2.9352,2.9358,2.9361,2.9369,2.9376,2.9296,2.9296,2.9296,0,0,2.9516,2.9493,2.9494,2.9474,2.9459,2.9458,2.9417,2.9417,2.9416,2.9371,2.9374,2.9358,2.9337,2.9349,2.9353,2.9338,2.9382,2.9362,2.9367,2.9367,2.9373,2.938,2.9387,2.9298,2.9298,2.9297,0,0,2.9569,2.9551,2.9561,2.9546,2.9523,2.9501,2.9503,2.9473,2.946,2.9463,2.9429,2.9427,2.9418,2.9404,2.9396,2.9443,2.9417,2.9442,2.9478,2.9486,2.9492,2.9497,2.9514,2.952,2.9445,2.9445,2.9445,0,2.9608,2.9605,2.957,2.9572,2.9564,2.9522,2.9531,2.9519,2.9495,2.9491,2.9473,2.946,2.9444,2.9451,2.9462,2.9458,2.9459,2.9445,2.9494,2.9499,2.9503,2.9519,2.9525,2.9448,2.9448,2.9447,2.9447,0,2.9654,2.9652,2.9663,2.964,2.9633,2.9639,2.9606,2.9603,2.9581,2.956,2.9563,2.9541,2.9528,2.9528,2.9507,2.9533,2.9524,2.9501,2.947,2.9515,2.9528,2.9534,2.9452,2.9451,2.945,2.945,0,0,2.9744,2.97,2.9705,2.9693,2.9665,2.9662,2.9666,2.9653,2.9651,2.9636,2.9639,2.9631,2.9609,2.96,2.9577,2.9584,2.9621,2.9559,2.9558,2.9571,2.9648,2.9665,2.9673,2.9604,2.9605,2.9606,2.9649,0,2.9791,2.9795,2.9763,2.9776,2.9773,2.9732,2.9736,2.9719,2.9699,2.9694,2.9672,2.9667,2.9639,2.9633,2.9638,2.9616,2.9636,2.9612,2.9606,2.9606,2.9612,2.968,2.9699,2.9741,2.9655,2.9655,2.9656,0,2.9847,2.9834,2.9846,2.9816,2.9813,2.9817,2.9802,2.9797,2.9777,2.9762,2.9751,2.9724,2.9726,2.9696,2.9698,2.9683,2.9678,2.9667,2.9668,2.9666,2.9634,2.968,2.9754,2.976,2.9664,2.9664,2.9663,0,2.9911,2.9896,2.9901,2.9893,2.9857,2.9861,2.9846,2.9824,2.9818,2.9805,2.98,2.9788,2.9781,2.9772,2.9742,2.9723,2.9747,2.9715,2.9735,2.9736,2.9742,2.9742,2.9816,2.9739,2.9739,2.9739,2.9739,0,2.9967,2.9976,2.9929,2.9932,2.9941,2.9904,2.9914,2.9895,2.9876,2.9875,2.9839,2.9839,2.9799,2.9795,2.9771,2.9776,2.9773,2.9761,2.9755,2.9764,2.9766,2.9761,2.9757,2.9741,2.974,2.974,2.974,0,3.0039,3.0008,3.0011,2.9977,2.9969,2.9976,2.9947,2.9949,2.9926,2.9926,2.9923,2.9888,2.9881,2.985,2.9836,2.982,2.9832,2.982,2.9839,2.9835,2.9856,2.9854,2.9929,2.9937,2.9856,2.9857,2.9858,0,3.0077,3.0083,3.0049,3.0046,3.0032,3.0027,3.002,2.9984,2.9978,2.9955,2.9959,2.9949,2.9939,2.9929,2.9902,2.9891,2.9878,2.9905,2.9876,2.9885,2.9878,2.9878,2.9878,2.9911,2.9912,2.9913,2.9914,0,3.0148,3.0132,3.0123,3.0108,3.0101,3.0088,3.0073,3.0072,3.0032,3.0027,3.0019,3.0011,2.9995,2.9985,2.9969,2.9954,2.9928,2.9923,2.9927,2.9937,2.9947,2.9941,2.9856,2.9922,2.9921,2.992,2.992,2.9919,3.0204,3.0207,3.0183,3.0174,3.0159,3.0145,3.0145,3.0122,3.0114,3.0098,3.0077,3.0071,3.005,3.0025,3.0013,3.0007,2.9992,2.9998,3.0,3.0002,3.0006,2.9948,3.0004,3.0004,3.0004,3.0004,3.0004,0,3.0273,3.0255,3.0247,3.0226,3.0219,3.0194,3.0175,3.0171,3.0166,3.0148,3.0138,3.0128,3.0118,3.0091,3.0078,3.0079,3.0066,3.0077,3.0076,3.0073,3.002,3.0018,3.0087,3.0087,3.0087,3.0087,3.0087,3.0087,3.0307,3.031,3.0292,3.0287,3.0269,3.0263,3.0254,3.0241,3.0227,3.0217,3.0208,3.019,3.0168,3.0153,3.0142,3.0134,3.0131,3.0146,3.0134,3.0085,3.0077,3.0069,3.0067,3.0145,3.0145,3.0187,3.0187,3.0188]},{"header":{"parameterUnit":"m.s-1","parameterCategory":1,"la1":30.2991,"la2":30.254,"lo1":-89.0895,"lo2":-89.0444,"dy":0.0017,"dx":0.0017,"nx":28,"ny":28,"refTime":"2025-02-13T09:00:00:Z","depth":0,"parameterNumber":3,"parameterNumberName":"V-component_of_WINDS"},"data":[0,0,0,0,0,0,0,0,0,0,0,0,0,0,0,0,0,0,0,0,0,0,0,0,0,0,0,0,0,0,0,0,0,0,0,0,0,0,0,0,0,0,0,0,0,0,0,0,0,0,0,0,0,0,0,0,0,0,1.595,1.5952,0,1.6076,1.6078,1.6079,1.6094,1.6093,1.6092,1.6091,1.6223,1.6228,1.6233,0,0,0,0,0,0,0,0,0,0,0,0,0,1.5726,1.573,1.595,1.5952,1.5953,1.6076,1.6078,1.608,1.6095,1.6093,1.6092,1.609,1.6222,1.6227,1.6233,0,0,0,0,0,0,0,0,0,0,0,0,0,1.5835,1.5731,1.595,1.5976,1.5979,1.6076,1.6078,1.608,1.6095,1.6093,1.6091,1.6089,1.622,1.6227,1.6234,1.6315,0,0,1.6255,1.6258,0,0,0,0,0,0,0,0,1.5829,1.5843,1.597,1.5974,1.5978,1.6068,1.6047,1.6159,1.6095,1.6051,1.6091,1.6089,1.6173,1.6184,1.6212,1.6321,1.6326,1.6256,1.626,1.6263,1.6265,0,0,0,0,0,0,0,1.5821,1.5838,1.6,1.5972,1.5977,1.5982,1.5995,1.6068,1.6121,1.6055,1.6056,1.6071,1.6175,1.6205,1.6215,1.6328,1.6256,1.6262,1.6266,1.6269,1.6511,1.6513,0,0,0,0,0,0,1.5808,1.5831,1.5996,1.6004,1.5897,1.5987,1.6002,1.6041,1.6121,1.6131,1.6072,1.6071,1.6194,1.6207,1.622,1.6321,1.6263,1.627,1.6274,1.6509,1.6511,1.6514,0,0,0,0,0,0,1.5803,1.5823,1.5991,1.5918,1.594,1.5993,1.6036,1.6044,1.6074,1.6134,1.6143,1.6093,1.6193,1.621,1.6291,1.6326,1.6273,1.6279,1.6506,1.6509,1.6512,1.6522,0,0,0,0,0,0,1.5797,1.5821,1.5852,1.5919,1.5944,1.6059,1.6038,1.6048,1.6086,1.6086,1.6156,1.6166,1.6193,1.628,1.6298,1.6334,1.6285,1.6503,1.6508,1.6511,1.6519,1.6526,1.6531,0,0,0,0,0,1.5789,1.585,1.5853,1.5873,1.5983,1.6061,1.6076,1.6105,1.6089,1.612,1.6158,1.6163,1.6318,1.6288,1.6308,1.6347,1.6501,1.6506,1.6511,1.6517,1.6524,1.6531,0,0,0,0,0,0,1.5787,1.5859,1.5864,1.5948,1.5998,1.6063,1.6105,1.6112,1.6169,1.6166,1.6201,1.6217,1.6296,1.633,1.6295,1.643,1.6408,1.6418,1.6406,1.6414,1.6419,1.6411,1.6291,0,0,0,0,0,1.5796,1.5853,1.5913,1.5982,1.6007,1.6051,1.6086,1.6104,1.6158,1.618,1.6224,1.6277,1.6338,1.6377,1.6436,1.6523,1.654,1.656,1.6566,1.657,1.6579,1.6628,1.6639,1.653,1.653,1.653,0,0,1.5816,1.5863,1.5897,1.5983,1.6024,1.6082,1.6069,1.6132,1.6176,1.619,1.6269,1.6303,1.6364,1.6449,1.6488,1.6479,1.6612,1.6577,1.658,1.6586,1.6635,1.6645,1.6654,1.6533,1.6533,1.6532,0,0,1.5884,1.5923,1.5986,1.6027,1.6088,1.6117,1.6132,1.6196,1.6219,1.6298,1.631,1.6364,1.6467,1.6511,1.6547,1.6629,1.6636,1.6647,1.6679,1.6727,1.6736,1.6744,1.6775,1.6785,1.6655,1.6655,1.6655,0,1.5901,1.5989,1.6017,1.6079,1.6117,1.613,1.6194,1.6233,1.6311,1.6338,1.6326,1.6456,1.6499,1.6594,1.6614,1.6642,1.6661,1.6641,1.6732,1.674,1.6748,1.6778,1.6789,1.6656,1.6656,1.6656,1.6656,0,1.6009,1.607,1.6113,1.6187,1.6229,1.6292,1.633,1.637,1.6384,1.6414,1.6495,1.6546,1.6616,1.664,1.6654,1.6738,1.673,1.6725,1.6704,1.6759,1.6788,1.68,1.6657,1.6657,1.6657,1.6657,0,0,1.6081,1.6168,1.6184,1.6218,1.6286,1.6334,1.6398,1.6465,1.6499,1.6552,1.6607,1.6694,1.6689,1.673,1.6749,1.6791,1.6855,1.6781,1.6783,1.6794,1.6952,1.6957,1.697,1.6859,1.6861,1.6863,1.6947,0,1.6157,1.627,1.6296,1.6393,1.6451,1.6463,1.6519,1.6567,1.6597,1.6651,1.6684,1.6746,1.6734,1.6758,1.68,1.6838,1.6887,1.6832,1.6913,1.6915,1.6899,1.6985,1.6991,1.7068,1.6959,1.696,1.6962,0,1.6262,1.6316,1.6419,1.648,1.6505,1.6554,1.6618,1.6669,1.6724,1.6743,1.6788,1.6803,1.687,1.6844,1.6939,1.6901,1.6935,1.6959,1.6963,1.6973,1.6944,1.7,1.7093,1.7105,1.698,1.6978,1.6977,0,1.6306,1.6405,1.6479,1.6508,1.658,1.6615,1.6647,1.67,1.6739,1.6795,1.6821,1.6884,1.6919,1.6968,1.7001,1.6978,1.7094,1.707,1.7113,1.7112,1.7139,1.7137,1.7241,1.7157,1.7157,1.7156,1.7156,0,1.639,1.6453,1.65,1.6546,1.6617,1.6646,1.6716,1.6748,1.6796,1.6849,1.6864,1.6914,1.6952,1.7008,1.7033,1.7109,1.7124,1.7143,1.7149,1.7143,1.7141,1.7167,1.7164,1.716,1.7159,1.7158,1.7158,0,1.6452,1.6486,1.6568,1.663,1.6647,1.6696,1.675,1.6795,1.6825,1.6892,1.691,1.6957,1.7023,1.7059,1.7142,1.716,1.7245,1.7247,1.7226,1.7229,1.7271,1.7267,1.7397,1.7417,1.7318,1.7319,1.7319,0,1.6504,1.6553,1.6619,1.6655,1.6688,1.6746,1.6785,1.6816,1.6856,1.6923,1.6961,1.7027,1.7083,1.7188,1.7231,1.7295,1.7301,1.7341,1.731,1.7303,1.7304,1.7301,1.7307,1.7348,1.7349,1.7349,1.735,0,1.6594,1.6609,1.6664,1.6726,1.6772,1.6822,1.6872,1.6901,1.6939,1.6984,1.7052,1.7094,1.7179,1.7245,1.7313,1.7347,1.7356,1.7359,1.7373,1.7368,1.7354,1.7364,1.7243,1.7357,1.7356,1.7355,1.7355,1.7355,1.6655,1.6699,1.6752,1.6814,1.6854,1.69,1.6946,1.6981,1.7037,1.7107,1.7122,1.7193,1.7248,1.7339,1.7375,1.7432,1.7425,1.7444,1.7449,1.7454,1.7457,1.7343,1.7444,1.7444,1.7444,1.7444,1.7444,0,1.6747,1.6782,1.6838,1.6906,1.6955,1.6956,1.7011,1.7052,1.7115,1.7164,1.7218,1.7295,1.736,1.7407,1.7473,1.751,1.7516,1.7527,1.7526,1.7534,1.7459,1.7441,1.7521,1.7521,1.7521,1.7521,1.7521,1.7521,1.6801,1.6876,1.6896,1.6991,1.7026,1.7095,1.7126,1.7169,1.7209,1.7295,1.7348,1.7377,1.7426,1.7496,1.7556,1.7568,1.7593,1.7604,1.7617,1.7547,1.7539,1.7531,1.7515,1.7608,1.7608,1.7687,1.7688,1.7688]}]]